| time (UTC) | temp F | wind direction | speed knots | gust knots | rain 1hr in | rain 24hr in | rain mn in | humidity % | barometer mb |
| 20260509090032 | 54 | 93 | 0.0 | 0.9 | 0.00 | 0.00 | 0.00 | 63 | 1016.5 |
| 20260509084531 | 55 | 93 | 0.0 | 0.0 | 0.00 | 0.00 | 0.00 | 61 | 1016.5 |
| 20260509083026 | 56 | 93 | 0.0 | 0.0 | 0.00 | 0.00 | 0.00 | 59 | 1016.4 |
| 20260509081523 | 56 | 93 | 0.0 | 0.0 | 0.00 | 0.00 | 0.00 | 56 | 1016.2 |
| 20260509080025 | 57 | 93 | 0.0 | 1.7 | 0.00 | 0.00 | 0.00 | 54 | 1016.1 |
| 20260509074516 | 58 | 119 | 0.0 | 2.6 | 0.00 | 0.00 | 0.00 | 51 | 1016.0 |
| 20260509073032 | 60 | 118 | 0.0 | 1.7 | 0.00 | 0.00 | 0.00 | 49 | 1015.8 |
| 20260509071509 | 60 | 119 | 0.0 | 1.7 | 0.00 | 0.00 | 0.00 | 49 | 1015.6 |
| 20260509070007 | 60 | 117 | 0.0 | 1.7 | 0.00 | 0.00 | 0.00 | 50 | 1015.4 |
| 20260509064505 | 61 | 242 | 0.0 | 1.7 | 0.00 | 0.00 | 0.00 | 46 | 1015.4 |
| 20260509063003 | 61 | 242 | 0.0 | 0.0 | 0.00 | 0.00 | 0.00 | 41 | 1015.2 |
| 20260509061501 | 62 | 241 | 0.0 | 0.0 | 0.00 | 0.00 | 0.00 | 40 | 1015.0 |
| 20260509060003 | 62 | 241 | 0.0 | 0.9 | 0.00 | 0.00 | 0.00 | 38 | 1015.0 |
| 20260509054604 | 63 | 241 | 0.0 | 1.7 | 0.00 | 0.00 | 0.00 | 38 | 1014.5 |
| 20260509053057 | 64 | 241 | 0.0 | 1.7 | 0.00 | 0.00 | 0.00 | 35 | 1014.7 |
| 20260509051603 | 65 | 241 | 0.0 | 1.7 | 0.00 | 0.00 | 0.00 | 34 | 1014.6 |
| 20260509050053 | 66 | 241 | 0.0 | 1.7 | 0.00 | 0.00 | 0.00 | 32 | 1014.3 |
| 20260509044554 | 66 | 242 | 0.0 | 2.6 | 0.00 | 0.00 | 0.00 | 31 | 1014.2 |
| 20260509043054 | 66 | 241 | 0.9 | 2.6 | 0.00 | 0.00 | 0.00 | 31 | 1013.7 |
| 20260509041546 | 66 | 253 | 0.0 | 1.7 | 0.00 | 0.00 | 0.00 | 31 | 1013.5 |
| 20260509040052 | 67 | 253 | 0.0 | 2.6 | 0.00 | 0.00 | 0.00 | 30 | 1013.1 |
| 20260509034541 | 67 | 262 | 0.9 | 3.5 | 0.00 | 0.00 | 0.00 | 29 | 1012.8 |
| 20260509033040 | 69 | 270 | 0.9 | 3.5 | 0.00 | 0.00 | 0.00 | 26 | 1012.6 |
| 20260509031538 | 70 | 293 | 1.7 | 8.7 | 0.00 | 0.00 | 0.00 | 23 | 1012.3 |
| 20260509030040 | 71 | 299 | 0.9 | 7.0 | 0.00 | 0.00 | 0.00 | 22 | 1012.1 |
| 20260509024536 | 73 | 254 | 1.7 | 5.2 | 0.00 | 0.00 | 0.00 | 21 | 1011.6 |
| 20260509023036 | 74 | 359 | 0.9 | 3.5 | 0.00 | 0.00 | 0.00 | 19 | 1011.5 |
| 20260509021536 | 75 | 299 | 0.9 | 5.2 | 0.00 | 0.00 | 0.00 | 20 | 1011.4 |
| 20260509020035 | 77 | 273 | 0.9 | 7.0 | 0.00 | 0.00 | 0.00 | 19 | 1011.2 |
| 20260509014534 | 78 | 291 | 0.9 | 7.8 | 0.00 | 0.00 | 0.00 | 19 | 1011.1 |
| 20260509013045 | 79 | 292 | 0.9 | 4.3 | 0.00 | 0.00 | 0.00 | 20 | 1011.0 |
| 20260509011534 | 80 | 308 | 0.9 | 5.2 | 0.00 | 0.00 | 0.00 | 20 | 1010.8 |
| 20260509010037 | 80 | 274 | 0.9 | 5.2 | 0.00 | 0.00 | 0.00 | 19 | 1010.7 |
| 20260509004557 | 81 | 241 | 0.9 | 6.1 | 0.00 | 0.00 | 0.00 | 17 | 1010.6 |
| 20260509003041 | 81 | 248 | 1.7 | 7.0 | 0.00 | 0.00 | 0.00 | 19 | 1010.5 |
| 20260509001531 | 81 | 252 | 1.7 | 6.1 | 0.00 | 0.00 | 0.00 | 16 | 1010.5 |
| 20260509000030 | 81 | 251 | 0.9 | 5.2 | 0.00 | 0.00 | 0.00 | 18 | 1010.5 |
| 20260508234529 | 81 | 241 | 0.9 | 7.8 | 0.00 | 0.00 | 0.00 | 17 | 1010.5 |
| 20260508233029 | 81 | 178 | 2.6 | 11.3 | 0.00 | 0.00 | 0.00 | 19 | 1010.6 |
| 20260508231527 | 80 | 178 | 0.9 | 7.8 | 0.00 | 0.00 | 0.00 | 20 | 1010.7 |
| 20260508230039 | 81 | 206 | 2.6 | 9.6 | 0.00 | 0.00 | 0.00 | 20 | 1010.7 |
| 20260508224523 | 80 | 212 | 1.7 | 7.8 | 0.00 | 0.00 | 0.00 | 22 | 1010.8 |
| 20260508223025 | 80 | 283 | 0.9 | 7.0 | 0.00 | 0.00 | 0.00 | 22 | 1010.8 |
| 20260508221521 | 80 | 212 | 0.9 | 5.2 | 0.00 | 0.00 | 0.00 | 23 | 1010.8 |
| 20260508220020 | 80 | 261 | 1.7 | 5.2 | 0.00 | 0.00 | 0.00 | 23 | 1010.9 |
| 20260508214519 | 80 | 187 | 0.9 | 9.6 | 0.00 | 0.00 | 0.00 | 23 | 1010.9 |
| 20260508213018 | 78 | 165 | 0.9 | 7.0 | 0.00 | 0.00 | 0.00 | 25 | 1011.0 |
| 20260508211516 | 78 | 208 | 2.6 | 8.7 | 0.00 | 0.00 | 0.00 | 26 | 1011.1 |
| 20260508210012 | 77 | 197 | 1.7 | 6.1 | 0.00 | 0.00 | 0.00 | 26 | 1011.0 |
| 20260508204508 | 76 | 177 | 1.7 | 5.2 | 0.00 | 0.00 | 0.00 | 27 | 1011.2 |
| 20260508203006 | 75 | 359 | 1.7 | 8.7 | 0.00 | 0.00 | 0.00 | 26 | 1011.2 |
| 20260508201504 | 75 | 205 | 1.7 | 5.2 | 0.00 | 0.00 | 0.00 | 27 | 1011.2 |
| 20260508200004 | 75 | 217 | 0.9 | 7.0 | 0.00 | 0.00 | 0.00 | 26 | 1011.2 |
| 20260508194501 | 75 | 251 | 0.9 | 7.8 | 0.00 | 0.00 | 0.00 | 26 | 1011.3 |
| 20260508193110 | 74 | 175 | 0.0 | 4.3 | 0.00 | 0.00 | 0.00 | 28 | 1011.2 |
| 20260508191557 | 74 | 218 | 0.9 | 8.7 | 0.00 | 0.00 | 0.00 | 27 | 1011.3 |
| 20260508184618 | 74 | 147 | 0.9 | 6.1 | 0.00 | 0.00 | 0.00 | 31 | 1011.7 |
| 20260508183051 | 73 | 179 | 0.0 | 6.1 | 0.00 | 0.00 | 0.00 | 32 | 1011.8 |
| 20260508181559 | 71 | 170 | 0.9 | 7.8 | 0.00 | 0.00 | 0.00 | 35 | 1011.9 |
| 20260508180045 | 70 | 128 | 0.9 | 6.1 | 0.00 | 0.00 | 0.00 | 35 | 1012.1 |
| 20260508174543 | 68 | 135 | 0.9 | 6.1 | 0.00 | 0.00 | 0.00 | 40 | 1012.2 |
| 20260508173038 | 68 | 165 | 0.9 | 6.1 | 0.00 | 0.00 | 0.00 | 41 | 1012.1 |
| 20260508171538 | 68 | 167 | 1.7 | 7.0 | 0.00 | 0.00 | 0.00 | 38 | 1012.0 |
| 20260508170039 | 68 | 194 | 0.9 | 9.6 | 0.00 | 0.00 | 0.00 | 39 | 1011.8 |
| 20260508164532 | 67 | 193 | 0.0 | 5.2 | 0.00 | 0.00 | 0.00 | 41 | 1011.8 |
| 20260508163029 | 66 | 179 | 0.9 | 8.7 | 0.00 | 0.00 | 0.00 | 43 | 1011.8 |
| 20260508161525 | 65 | 174 | 0.9 | 4.3 | 0.00 | 0.00 | 0.00 | 45 | 1011.8 |
| 20260508160022 | 64 | 168 | 0.0 | 4.3 | 0.00 | 0.00 | 0.00 | 46 | 1011.7 |
| 20260508154518 | 63 | 168 | 0.9 | 3.5 | 0.00 | 0.00 | 0.00 | 47 | 1011.7 |
| 20260508153016 | 62 | 175 | 0.0 | 1.7 | 0.00 | 0.00 | 0.00 | 48 | 1011.5 |
| 20260508151515 | 61 | 129 | 0.9 | 5.2 | 0.00 | 0.00 | 0.00 | 50 | 1011.5 |
| 20260508150019 | 61 | 197 | 0.0 | 4.3 | 0.00 | 0.00 | 0.00 | 49 | 1011.5 |
| 20260508144517 | 60 | 182 | 0.9 | 6.1 | 0.00 | 0.00 | 0.00 | 49 | 1011.5 |
| 20260508143008 | 60 | 128 | 0.9 | 2.6 | 0.00 | 0.00 | 0.00 | 49 | 1011.3 |
| 20260508141505 | 60 | 123 | 0.0 | 0.0 | 0.00 | 0.00 | 0.00 | 49 | 1011.0 |
| 20260508140008 | 59 | 122 | 0.0 | 0.9 | 0.00 | 0.00 | 0.00 | 49 | 1010.9 |
| 20260508134503 | 58 | 124 | 0.0 | 0.0 | 0.00 | 0.00 | 0.00 | 51 | 1010.8 |
| 20260508133119 | 57 | 125 | 0.0 | 0.0 | 0.00 | 0.00 | 0.00 | 53 | 1010.7 |
| 20260508131554 | 56 | 124 | 0.0 | 0.0 | 0.00 | 0.00 | 0.00 | 53 | 1010.6 |
| 20260508130051 | 56 | 123 | 0.0 | 0.0 | 0.00 | 0.00 | 0.00 | 53 | 1010.6 |
| 20260508124549 | 55 | 123 | 0.0 | 0.0 | 0.00 | 0.00 | 0.00 | 53 | 1010.5 |
| 20260508123058 | 55 | 124 | 0.0 | 0.0 | 0.00 | 0.00 | 0.00 | 52 | 1010.4 |
| 20260508121546 | 56 | 123 | 0.0 | 0.0 | 0.00 | 0.00 | 0.00 | 51 | 1010.4 |
| 20260508120045 | 56 | 123 | 0.0 | 0.0 | 0.00 | 0.00 | 0.00 | 50 | 1010.4 |
| 20260508114542 | 56 | 123 | 0.0 | 0.0 | 0.00 | 0.00 | 0.00 | 49 | 1010.3 |
| 20260508113055 | 56 | 123 | 0.0 | 2.6 | 0.00 | 0.00 | 0.00 | 48 | 1010.3 |
| 20260508111543 | 57 | 123 | 0.9 | 2.6 | 0.00 | 0.00 | 0.00 | 47 | 1010.1 |
| 20260508110048 | 57 | 124 | 0.0 | 2.6 | 0.00 | 0.00 | 0.00 | 45 | 1010.0 |
| 20260508104537 | 57 | 124 | 0.0 | 4.3 | 0.00 | 0.00 | 0.00 | 44 | 1010.0 |
| 20260508103032 | 58 | 130 | 0.9 | 2.6 | 0.00 | 0.00 | 0.00 | 43 | 1009.9 |
| 20260508101533 | 58 | 125 | 0.0 | 2.6 | 0.00 | 0.00 | 0.00 | 41 | 1009.9 |
| 20260508100030 | 58 | 125 | 0.0 | 5.2 | 0.00 | 0.00 | 0.00 | 39 | 1009.9 |
| 20260508094526 | 58 | 127 | 0.9 | 6.1 | 0.00 | 0.00 | 0.00 | 37 | 1009.8 |
| 20260508093029 | 59 | 125 | 0.9 | 3.5 | 0.00 | 0.00 | 0.00 | 36 | 1009.7 |
| 20260508091523 | 59 | 134 | 0.9 | 4.3 | 0.00 | 0.00 | 0.00 | 34 | 1009.8 |